Über Lemur-2 Kate
Group: 3 satellites
Beschreibung wird geladen...
Live-Position
3D-Globus wird geladen...
Nächste Überflüge
Höhenverlauf
Altitude vs Time
uPlot chart will show altitude changes over time
Zweizeiliger Elementsatz
1 67387U 26004AA 26061.48571141 .00007780 00000-0 83127-3 0 9995
2 67387 97.8035 61.9017 0005068 86.2667 273.9130 14.89043024 7426
Epoch: 2. März 2026 •
Age: 25 hours
Aktueller Status
Höhe 604.5 km
Geschwindigkeit 7.56 km/s
Subsatellitenpunkt 39.39°N,
70.25°E
Startdatum 11. Jan. 2026
Alter 0.1 years
Typ other
Technische Details
Klassifizierung Payload
Masse 4.60 kg
Trockenmasse 4.60 kg
Gesamtmasse 4.60 kg
Länge 0.30 m
Durchmesser 0.10 m
Spannweite 0.30 m
Form Box+2 pan
Hersteller SPIREG
Bus-Typ Cubesat 3U
Phasenstatus In Orbit
Besitzer/Staat SPIREL/L
Große Konstellationen
Loading constellations...